Temp
47 43 41 44 46 44 42 39 39 42 49 45 45 45 46 45 41 39 39 39 39 40 43 44 43 43 43 44 44 45 45 46 47 46 46 49 47 51 51 53 52 54 55 56
43 40 49 48 46 44 41 38 38 44 46 45 44 44 40 41 40 40 38 37 38 39 39 41 41 41 40 41 43 43 44 44 45 46 44 45 44 45 49 49 49 49 50 51
41 47 49 48 44 42 40 39 38 42 42 41 39 40 39 39 40 40 39 39 39 37 38 38 39 37 38 38 39 42 42 43 43 45 45 45 44 43 43 43 44 44 45 45
42 48 47 43 43 45 37 45 42 40 37 33 37 29 37 37 36 36 36 34 35 36 38 38 37 37 36 36 38 40 41 41 42 42 42 40 39 37 37 38 40 41 41 41
43 43 42 42 44 46 42 44 42 39 35 32 32 30 34 35 32 33 34 35 35 36 36 36 36 37 36 36 34 37 40 40 40 40 40 39 37 37 37 38 38 38 39 40
44 46 46 46 45 46 46 41 38 34 33 25 33 33 32 34 36 34 35 35 36 36 35 36 37 37 35 35 35 35 38 37 38 39 38 37 36 36 36 35 35 36 37 38
39 41 43 46 42 42 41 37 29 25 23 26 30 30 34 35 35 38 35 34 35 36 35 35 35 35 35 34 34 37 35 35 35 36 36 36 34 34 34 33 33 33 34 35
35 33 43 45 44 40 37 38 28 18 20 24 31 28 35 34 36 38 37 36 35 35 36 35 35 34 34 35 34 34 34 34 34 34 34 34 35 34 34 34 34 34 35 36
34 35 41 42 41 44 36 33 37 28 17 23 28 31 33 34 33 34 34 34 34 35 35 35 35 34 34 33 33 34 34 33 33 34 33 34 34 35 36 35 35 35 35 38
40 32 39 40 42 39 38 40 31 28 15 13 25 27 31 29 31 32 32 33 35 36 35 35 34 34 34 34 33 33 34 33 33 33 33 33 32 33 32 31 31 31 32 33
40 37 33 37 36 36 34 33 33 33 26 17 14 25 35 35 35 33 34 36 36 36 35 34 34 34 34 34 33 33 33 33 32 32 33 32 32 32 31 30 31 30 30 31
41 36 26 33 35 35 35 35 35 30 25 24 26 30 37 36 37 37 36 38 36 37 35 34 34 34 33 33 33 33 33 33 33 33 32 32 31 31 30 30 29 29 28 30
41 31 20 27 32 32 32 34 34 31 27 22 21 26 36 34 34 36 36 36 37 36 34 33 32 32 32 32 32 32 32 32 33 32 32 32 31 30 29 29 29 29 28 28
44 31 29 30 30 32 28 31 31 27 19 22 29 29 29 33 34 34 35 35 36 34 33 31 31 31 31 32 31 31 31 31 31 31 30 30 28 29 28 28 28 27 27 26
39 29 28 28 29 28 29 28 30 28 30 26 29 30 33 34 34 35 35 34 33 32 31 32 31 30 30 30 30 31 30 30 30 29 29 28 28 28 27 26 26 26 26 26
33 23 26 27 30 31 28 29 30 31 31 29 31 31 39 35 36 34 34 34 33 32 32 32 33 32 32 32 31 32 30 30 29 27 28 28 27 27 26 25 24 24 24 23
29 26 23 26 25 24 20 25 29 30 31 33 27 34 24 29 32 32 32 32 32 32 32 32 32 32 33 32 33 30 29 28 27 27 24 24 22 20 21 21 20 20 19 19
29 27 25 18 16 13 28 27 29 29 31 26 24 21 24 27 30 31 31 30 31 33 33 33 32 32 32 31 30 28 27 26 24 20 18 19 19 16 19 17 17 16 17 15
32 28 17 19 13 21 28 27 25 25 25 25 26 24 28 27 26 26 31 31 31 32 32 33 33 32 30 28 27 25 24 24 21 20 19 17 15 12 14 10 13 13 12 11
29 29 28 10 11 10 22 22 27 28 14 17 19 20 22 25 15 25 29 32 31 33 33 32 32 29 27 25 24 22 20 19 18 19 18 16 14 6 6 10 9 10 8 10
14 18 21 15 17 14 24 27 29 13 19 19 19 24 21 21 26 29 31 30 32 32 32 30 28 27 24 22 20 19 17 16 17 15 15 13 11 6 6 6 7 6 5 7
15 13 12 11 13 9 23 24 22 26 27 26 25 27 24 27 30 30 31 30 31 30 29 29 23 22 20 20 18 17 15 16 13 13 12 8 4 3 5 -2 2 2 2 1
16 21 14 17 15 25 24 28 32 31 29 29 28 29 29 28 28 30 29 29 29 29 27 22 21 18 16 16 15 13 13 13 11 8 0 -0 2 2 3 -3 1 1 1 1
22 23 17 18 24 25 28 30 31 31 30 32 31 31 28 28 29 28 27 28 27 24 23 18 17 16 13 11 14 9 11 10 5 4 1 2 -0 -1 -1 3 3 1 0 1
23 23 18 18 26 27 29 30 32 32 31 29 29 30 29 27 27 27 27 25 25 23 18 18 18 16 12 11 8 5 7 6 4 1 2 -0 -1 -2 1 3 3 4 7 8
26 22 20 18 29 29 30 31 32 30 30 29 28 27 27 27 27 26 24 24 20 18 15 14 12 11 8 5 4 3 3 0 0 1 2 0 1 0 2 2 2 10 14 16
MSLP
1018.06 1018.71 1018.72 1018.42 1018.40 1018.47 1018.72 1019.02 1018.93 1018.26 1017.68 1017.97 1017.87 1018.26 1018.90 1020.03 1020.79 1022.08 1023.02 1023.57 1023.97 1024.15 1024.17 1023.68 1023.22 1022.64 1022.00 1021.29 1020.76 1020.55 1020.02 1019.82 1019.07 1018.94 1019.49 1019.93 1020.48 1020.67 1020.69 1020.67 1020.72 1020.47 1020.21 1020.08
1018.85 1018.52 1017.62 1018.00 1018.40 1018.81 1018.98 1019.21 1019.15 1018.64 1018.17 1018.57 1018.52 1018.76 1020.06 1020.92 1022.13 1022.95 1023.72 1024.29 1024.64 1024.75 1024.54 1024.24 1023.77 1023.44 1023.05 1022.87 1022.25 1021.57 1021.25 1021.09 1020.90 1020.85 1020.95 1021.15 1021.44 1021.96 1022.37 1022.52 1022.15 1022.02 1021.77 1021.52
1018.14 1017.57 1017.44 1017.89 1018.31 1018.82 1018.97 1019.11 1019.07 1019.01 1018.85 1019.03 1019.46 1019.73 1020.47 1022.07 1022.97 1023.72 1024.28 1024.82 1025.47 1025.65 1025.45 1025.20 1024.99 1024.60 1024.31 1023.94 1023.51 1023.03 1022.61 1022.14 1022.03 1021.96 1021.96 1022.18 1022.39 1022.84 1022.89 1023.31 1023.41 1023.64 1023.39 1023.06
1018.12 1017.24 1017.43 1017.73 1017.94 1018.28 1018.73 1018.43 1018.89 1019.27 1019.62 1020.13 1020.29 1020.76 1020.56 1021.97 1023.44 1024.48 1025.08 1025.36 1025.55 1025.97 1026.02 1026.02 1025.93 1025.65 1025.50 1025.18 1024.62 1024.21 1023.92 1023.55 1023.49 1023.27 1023.10 1023.38 1024.26 1024.64 1025.27 1025.21 1025.12 1024.70 1024.54 1024.40
1017.25 1017.13 1017.30 1017.56 1017.59 1017.98 1018.32 1018.35 1019.06 1019.65 1020.44 1021.08 1021.23 1021.96 1021.08 1022.15 1023.52 1024.51 1025.17 1025.64 1025.95 1026.19 1026.28 1026.31 1026.28 1026.21 1026.04 1025.73 1025.33 1025.07 1024.76 1024.62 1024.60 1024.60 1024.82 1025.12 1025.34 1025.72 1025.75 1025.64 1025.37 1025.18 1025.31 1025.22
1017.14 1016.80 1016.75 1016.65 1017.12 1017.50 1018.15 1019.06 1020.05 1020.90 1021.41 1021.98 1021.42 1021.80 1021.59 1022.22 1022.72 1023.99 1025.01 1025.53 1025.92 1026.15 1026.24 1026.25 1026.41 1026.44 1026.36 1026.28 1026.20 1025.90 1026.01 1025.96 1025.74 1025.33 1025.28 1025.61 1026.06 1026.33 1026.28 1026.32 1026.36 1026.33 1025.94 1025.91
1017.09 1016.81 1016.58 1016.61 1017.22 1017.84 1018.42 1019.68 1021.15 1022.04 1022.83 1022.16 1021.88 1022.24 1021.11 1021.93 1022.48 1022.94 1024.10 1025.22 1025.72 1026.00 1026.14 1026.36 1026.49 1026.57 1026.74 1026.73 1026.52 1026.28 1026.60 1026.86 1026.84 1026.75 1026.55 1026.57 1026.57 1026.75 1026.93 1026.99 1026.80 1026.68 1026.58 1026.37
1017.21 1017.15 1016.55 1016.55 1016.90 1017.64 1018.69 1019.56 1021.22 1022.59 1023.58 1023.49 1022.98 1022.05 1021.08 1022.32 1022.71 1022.98 1024.05 1024.93 1025.62 1025.85 1026.04 1026.32 1026.45 1026.57 1026.76 1026.76 1026.71 1026.80 1026.89 1026.96 1026.89 1027.04 1027.29 1027.36 1027.38 1027.40 1027.58 1027.66 1027.64 1027.20 1027.38 1026.68
1016.80 1016.82 1016.52 1016.67 1017.08 1017.74 1019.21 1019.92 1020.40 1022.38 1024.08 1024.19 1022.83 1021.66 1021.81 1022.58 1023.42 1023.99 1024.47 1024.95 1025.39 1025.64 1025.82 1026.12 1026.39 1026.62 1026.88 1026.94 1027.04 1026.98 1027.03 1027.28 1027.11 1027.21 1027.27 1027.45 1027.73 1027.91 1027.91 1027.71 1027.57 1027.79 1027.65 1027.11
1016.04 1016.98 1017.03 1017.17 1017.49 1018.57 1018.61 1019.28 1020.81 1022.15 1023.88 1024.30 1022.96 1022.25 1021.25 1022.36 1023.16 1024.05 1024.60 1024.63 1024.89 1025.21 1025.75 1026.28 1026.60 1026.77 1026.95 1027.05 1027.16 1027.20 1027.22 1027.21 1027.29 1027.48 1027.54 1027.65 1027.85 1027.88 1027.74 1027.97 1028.05 1028.31 1027.74 1027.44
1015.91 1017.35 1018.35 1018.01 1017.94 1018.72 1019.37 1019.67 1020.59 1021.65 1022.90 1023.18 1023.22 1021.14 1019.91 1020.29 1021.76 1023.00 1023.76 1024.06 1024.29 1024.92 1025.42 1025.90 1026.40 1026.52 1026.77 1026.99 1027.11 1027.21 1027.29 1027.44 1027.58 1027.68 1027.75 1027.80 1027.91 1027.98 1027.88 1027.91 1028.12 1028.07 1027.63 1027.40
1016.07 1017.56 1018.98 1018.44 1018.21 1019.05 1018.87 1019.16 1019.95 1021.26 1022.52 1022.70 1022.59 1020.17 1020.01 1020.05 1020.89 1022.18 1023.13 1023.52 1023.84 1024.35 1025.22 1025.58 1026.02 1026.32 1026.73 1026.84 1027.12 1027.12 1027.35 1027.47 1027.52 1027.63 1027.65 1027.75 1027.83 1027.76 1027.88 1028.20 1028.04 1027.82 1027.62 1027.39
1016.32 1017.93 1018.88 1019.46 1019.33 1019.52 1019.49 1019.68 1019.97 1020.83 1021.66 1021.89 1022.91 1020.52 1020.43 1020.82 1021.22 1021.90 1022.71 1023.08 1023.67 1024.02 1024.65 1025.52 1026.01 1026.21 1026.59 1026.61 1026.73 1026.85 1026.89 1027.15 1027.36 1027.48 1027.65 1027.83 1027.91 1028.05 1028.18 1028.22 1028.14 1027.96 1027.76 1027.56
1016.21 1017.45 1018.46 1018.79 1018.92 1019.24 1020.16 1020.10 1020.37 1020.72 1021.94 1021.55 1020.40 1020.26 1020.86 1021.14 1021.51 1022.12 1022.52 1022.91 1023.35 1023.79 1024.36 1024.94 1025.56 1025.73 1026.09 1026.31 1026.46 1026.64 1026.80 1026.95 1027.22 1027.49 1027.70 1027.99 1028.20 1028.28 1028.34 1028.42 1028.35 1028.17 1027.96 1027.86
1017.06 1018.18 1019.05 1019.44 1019.49 1019.74 1019.91 1019.96 1020.25 1020.62 1020.41 1020.70 1020.15 1020.28 1020.20 1020.96 1021.21 1021.61 1022.11 1022.73 1023.12 1023.63 1024.16 1024.56 1025.08 1025.38 1025.81 1026.12 1026.14 1026.32 1026.57 1026.86 1027.16 1027.50 1027.87 1028.12 1028.18 1028.29 1028.45 1028.52 1028.52 1028.36 1028.18 1028.02
1018.07 1019.26 1020.16 1020.83 1020.80 1020.77 1020.52 1020.27 1020.43 1020.22 1020.36 1020.68 1020.61 1019.76 1020.16 1020.70 1020.99 1021.33 1021.70 1022.18 1022.73 1023.19 1023.56 1024.12 1024.66 1025.02 1025.32 1025.46 1025.59 1026.06 1026.51 1026.85 1027.15 1027.66 1027.95 1027.99 1028.14 1028.34 1028.52 1028.65 1028.69 1028.52 1028.38 1028.25
1018.60 1019.77 1020.97 1021.75 1022.15 1022.07 1021.47 1019.24 1019.76 1020.23 1019.87 1020.29 1020.64 1019.80 1020.76 1021.14 1021.47 1021.57 1021.96 1022.18 1022.54 1022.88 1023.27 1023.69 1024.04 1024.33 1024.68 1024.98 1025.14 1025.67 1026.08 1026.52 1027.12 1027.60 1027.96 1028.10 1028.34 1028.47 1028.57 1028.64 1028.56 1028.48 1028.33 1028.12
1018.91 1020.02 1021.20 1022.36 1023.11 1022.07 1018.92 1018.85 1019.18 1019.85 1020.15 1020.44 1020.89 1020.93 1021.04 1021.28 1021.60 1021.67 1021.71 1021.93 1022.38 1022.51 1022.69 1023.16 1023.56 1023.88 1024.11 1024.48 1024.92 1025.42 1025.97 1026.53 1027.17 1027.72 1027.90 1027.84 1028.11 1028.44 1028.55 1028.57 1028.61 1028.53 1028.37 1028.16
1019.21 1020.24 1021.88 1022.65 1022.86 1020.83 1019.12 1019.25 1019.61 1020.16 1020.19 1020.68 1021.20 1021.42 1021.56 1021.74 1021.91 1021.79 1021.67 1021.79 1021.86 1022.12 1022.33 1022.68 1023.07 1023.43 1023.76 1024.30 1024.82 1025.54 1026.15 1026.61 1027.06 1027.47 1027.80 1028.14 1028.49 1028.81 1028.88 1028.99 1028.84 1028.71 1028.44 1028.10
1020.57 1020.83 1021.27 1022.99 1022.81 1021.29 1019.43 1019.62 1019.41 1020.05 1020.83 1020.56 1020.94 1021.73 1022.06 1022.39 1022.70 1021.81 1021.20 1021.63 1021.89 1021.98 1022.23 1022.60 1022.88 1023.38 1023.96 1024.41 1025.00 1025.66 1026.15 1026.59 1027.12 1027.56 1027.92 1028.38 1028.73 1028.98 1029.21 1029.17 1029.06 1028.80 1028.64 1027.94
1022.18 1022.23 1021.90 1022.12 1021.91 1020.79 1019.88 1019.76 1019.88 1020.88 1020.46 1020.28 1021.04 1021.32 1021.85 1022.35 1021.55 1021.10 1021.06 1021.35 1021.45 1021.69 1021.97 1022.33 1022.83 1023.31 1023.73 1024.59 1025.25 1025.82 1026.34 1026.85 1027.31 1027.80 1028.19 1028.53 1028.84 1029.11 1029.25 1029.12 1028.98 1028.68 1028.30 1027.82
1021.28 1022.47 1022.01 1021.89 1021.91 1020.87 1019.21 1019.86 1019.89 1019.26 1019.48 1019.91 1020.27 1020.42 1021.00 1020.74 1020.71 1020.85 1020.83 1021.03 1021.39 1021.72 1021.99 1022.18 1022.90 1023.43 1023.91 1024.59 1025.25 1026.03 1026.67 1027.07 1027.56 1027.96 1028.29 1028.72 1028.94 1029.08 1029.02 1028.91 1028.62 1028.28 1027.97 1027.56
1020.58 1019.28 1019.56 1019.94 1019.52 1018.76 1018.65 1018.06 1017.92 1018.24 1018.66 1019.18 1019.49 1019.61 1019.86 1020.30 1020.54 1020.37 1020.62 1020.86 1021.11 1021.36 1021.70 1022.13 1022.85 1023.61 1024.26 1024.89 1025.45 1026.23 1026.75 1027.27 1027.76 1028.30 1028.86 1028.92 1028.95 1029.00 1028.80 1028.60 1028.15 1027.81 1027.46 1027.00
1019.06 1018.35 1018.65 1019.19 1018.37 1018.34 1017.99 1017.59 1017.56 1017.74 1018.18 1017.87 1018.24 1018.52 1019.28 1019.90 1019.86 1020.04 1020.27 1020.56 1020.81 1020.94 1021.52 1022.20 1023.02 1023.76 1024.53 1025.14 1025.77 1026.28 1026.87 1027.40 1028.03 1028.49 1028.70 1028.82 1028.88 1028.76 1028.44 1028.10 1027.62 1027.21 1026.67 1026.07
1017.02 1017.20 1017.67 1017.88 1017.53 1017.67 1017.37 1017.11 1016.92 1017.10 1017.40 1017.82 1018.08 1018.46 1018.71 1019.27 1019.52 1019.84 1019.95 1020.20 1020.31 1020.79 1021.47 1022.06 1022.72 1023.54 1024.35 1025.26 1025.99 1026.47 1027.01 1027.53 1028.09 1028.36 1028.41 1028.45 1028.40 1028.36 1027.97 1027.45 1026.86 1026.20 1025.55 1024.96
1015.44 1015.68 1016.40 1016.32 1015.71 1015.93 1015.95 1015.67 1015.91 1016.80 1017.17 1017.29 1017.74 1018.09 1018.23 1018.74 1018.98 1019.29 1019.71 1019.77 1020.34 1020.95 1021.64 1022.43 1023.12 1023.83 1024.71 1025.49 1026.20 1026.65 1027.09 1027.48 1027.89 1028.22 1028.23 1028.06 1027.98 1027.75 1027.40 1026.91 1025.96 1025.25 1024.40 1023.58
Wind_Speed
1 4 8 13 12 2 4 4 5 4 4 3 7 8 4 5 9 8 7 8 8 9 7 10 11 11 11 14 15 16 16 15 11 6 4 6 6 8 10 9 14 13 11 10
4 8 13 4 4 4 3 3 6 7 4 5 7 10 6 7 5 5 7 7 6 5 7 8 11 12 13 12 13 15 15 15 12 9 4 4 3 5 8 9 13 14 14 14
9 6 3 8 5 5 4 5 5 7 3 1 4 8 4 4 7 8 7 6 6 6 6 9 11 10 10 12 12 13 13 14 13 12 7 5 5 4 8 10 9 13 14 14
6 5 5 4 5 8 3 7 3 3 2 3 2 6 4 5 5 5 4 5 6 5 5 6 7 9 8 9 10 12 14 14 13 12 12 15 9 7 4 4 6 9 13 14
7 5 5 4 6 6 7 4 4 2 3 3 3 1 7 6 4 5 5 5 4 4 5 5 5 5 6 7 7 7 11 13 13 14 13 10 11 6 5 6 9 10 10 12
6 2 5 8 3 6 5 4 5 4 3 0 8 7 5 5 5 6 6 6 6 5 5 5 4 5 6 6 6 7 10 10 10 11 12 13 11 9 8 9 8 7 6 7
1 4 1 2 5 3 5 6 3 4 3 6 3 4 8 4 5 9 13 9 8 6 5 5 6 5 6 6 6 7 8 10 7 9 10 9 8 8 8 5 4 5 5 4
7 4 8 4 5 7 6 8 7 7 4 4 5 7 5 2 4 9 9 8 6 7 6 6 6 6 6 6 7 7 7 7 7 7 7 6 6 5 5 5 4 4 4 4
6 5 1 2 2 4 5 4 4 6 3 1 5 4 1 4 4 5 8 7 8 8 7 7 6 6 6 6 6 7 7 6 7 7 6 6 6 6 6 6 5 4 4 5
6 2 2 3 4 3 4 7 4 3 2 5 5 7 6 8 10 7 8 10 8 8 7 6 6 6 5 5 5 5 5 7 6 6 6 5 6 6 6 5 6 6 5 6
6 4 2 3 6 9 2 2 4 4 5 6 3 7 5 11 14 16 13 10 10 8 8 7 7 6 6 6 5 5 5 5 5 4 4 5 5 5 4 4 4 5 5 5
6 6 4 8 1 3 2 7 7 6 7 3 3 11 4 6 11 11 10 10 7 7 8 7 8 7 6 6 5 5 5 5 4 4 3 4 5 6 7 6 6 6 7 7
9 2 2 7 3 2 4 5 4 5 4 8 6 7 3 4 7 9 9 8 7 8 8 7 7 7 7 7 6 5 4 4 2 1 2 3 5 6 6 6 6 6 6 7
5 4 9 11 7 5 4 5 5 6 5 5 15 7 2 3 7 6 7 6 8 7 8 8 7 7 7 7 7 6 5 5 4 3 3 1 2 3 5 5 6 7 7 8
5 7 4 3 2 3 5 6 10 9 8 11 6 12 5 8 10 10 8 5 5 6 9 11 8 7 7 7 7 6 6 5 4 4 3 2 2 3 4 4 5 5 5 6
2 2 3 2 1 2 5 6 8 7 5 7 8 19 7 4 6 6 8 6 7 8 8 8 8 7 7 8 7 6 6 6 5 5 5 2 1 1 2 3 4 6 7 8
6 7 4 7 3 3 10 11 16 8 9 10 15 16 3 5 8 8 8 8 8 7 8 9 9 8 7 8 6 7 7 6 6 5 2 3 3 2 3 5 6 7 9 9
7 6 2 4 1 7 5 2 3 7 7 5 2 4 4 4 4 5 7 7 9 8 7 7 6 6 7 4 4 5 6 6 5 4 2 4 5 4 6 7 8 9 9 10
2 6 3 4 5 8 9 6 8 8 10 9 10 4 5 2 2 5 7 6 7 8 7 7 7 6 5 6 6 6 5 5 4 3 4 4 4 3 6 7 9 9 10 10
3 4 4 4 6 11 5 1 3 5 7 7 6 6 6 5 2 7 5 6 8 8 5 7 7 3 5 6 6 6 5 4 4 3 2 2 1 2 3 7 8 7 8 11
4 1 9 6 8 9 6 5 3 7 9 5 7 6 7 6 9 5 4 6 7 7 8 6 6 7 6 6 6 5 4 3 3 3 1 1 2 2 5 6 6 8 8 10
9 9 6 3 3 10 7 6 9 7 0 7 6 6 8 9 8 6 7 8 9 9 8 7 6 7 6 6 6 5 4 4 3 1 2 3 4 5 5 5 7 6 7 9
3 10 9 11 9 2 7 6 12 6 7 7 6 7 9 8 8 9 8 9 11 11 8 5 7 7 5 5 5 6 4 3 2 0 3 3 5 5 6 5 8 7 6 7
7 5 3 5 5 7 9 10 5 7 8 6 7 7 8 9 10 9 7 8 8 6 7 5 8 8 7 5 5 4 4 4 3 3 4 4 4 6 5 6 6 6 6 7
6 7 8 3 5 3 8 8 8 9 8 6 5 8 10 9 10 9 9 8 8 6 5 7 10 8 7 7 5 4 4 4 4 4 5 4 4 5 6 6 6 7 8 10
7 7 5 7 10 7 7 7 10 10 11 11 10 8 9 9 12 8 8 7 5 6 5 6 5 5 5 5 4 4 4 5 4 4 4 3 4 4 5 6 7 13 17 19
Wind_Direction
21 116 206 203 201 171 150 185 231 265 267 344 255 256 336 20 64 76 68 66 59 44 12 22 21 22 28 31 33 28 28 19 32 21 19 36 41 30 40 36 30 26 28 29
61 224 231 143 169 210 251 236 261 281 271 170 290 280 72 36 52 77 88 74 67 54 31 26 26 27 28 28 33 37 39 33 31 28 18 50 53 52 47 28 35 30 30 27
177 216 149 174 162 165 215 191 217 227 335 288 332 291 163 58 80 77 69 73 50 45 42 25 22 17 25 31 27 36 36 45 42 42 38 31 40 35 32 27 29 23 27 33
235 242 175 170 185 156 240 214 211 189 93 226 36 278 309 138 100 64 72 75 89 70 48 35 24 35 26 22 26 39 41 41 38 36 60 68 67 63 13 21 25 31 29 26
238 173 164 183 217 157 227 148 148 119 116 69 289 311 263 116 174 178 164 136 123 101 93 76 58 54 35 29 38 50 66 60 54 55 54 56 60 51 40 36 42 39 32 33
234 247 181 193 122 156 137 110 69 63 102 287 233 177 266 193 202 168 176 167 163 144 126 112 88 65 59 42 40 44 50 50 49 72 78 78 74 65 57 43 36 24 31 31
213 223 203 172 94 54 87 69 325 341 357 227 132 131 244 296 296 185 167 170 176 167 159 134 106 88 71 61 61 72 65 56 38 48 55 63 78 73 63 50 49 41 22 24
165 245 167 190 181 176 176 158 161 217 199 282 319 232 257 320 340 126 139 159 168 178 175 156 143 123 108 93 81 81 80 82 69 67 59 52 57 68 60 49 31 32 11 20
148 266 104 99 91 128 185 177 165 106 48 50 248 294 224 92 86 122 155 175 193 198 184 176 160 143 126 110 106 108 96 92 73 78 75 61 54 53 50 40 37 21 8 4
201 115 206 146 102 20 156 164 88 18 158 250 278 273 227 198 195 190 196 204 201 208 187 177 165 158 151 140 128 111 103 100 95 82 71 70 58 47 44 34 22 2 353 355
135 117 247 107 189 181 133 180 73 123 144 176 257 256 235 191 183 191 203 208 207 201 192 178 179 174 166 160 156 142 125 117 107 102 92 80 64 50 42 31 5 353 345 348
181 140 179 202 114 302 213 186 158 179 235 246 161 259 353 175 186 180 197 212 214 201 197 183 176 172 175 175 173 169 164 150 146 138 98 59 42 28 19 2 354 355 349 347
175 207 66 345 12 360 213 202 147 103 65 200 173 263 33 78 151 192 196 212 222 214 189 178 177 183 187 189 192 193 189 200 204 104 53 24 16 6 349 338 334 338 335 330
130 143 167 223 190 138 184 206 177 138 148 180 229 258 205 198 214 203 217 220 244 222 188 181 182 194 195 198 199 204 215 206 200 198 194 224 321 318 316 320 326 327 327 321
146 206 147 26 97 124 193 193 178 187 207 199 214 228 192 199 205 209 221 241 214 203 191 194 191 197 202 206 212 212 219 214 198 190 195 231 284 285 287 300 314 320 315 314
28 150 102 224 325 312 273 200 222 219 225 257 259 265 268 169 216 230 240 244 224 218 210 193 199 196 207 214 213 204 210 205 176 182 188 208 229 285 341 355 334 322 320 317
135 133 122 236 65 61 284 213 204 198 205 212 230 245 152 184 202 218 227 220 217 210 196 196 202 208 216 221 212 212 202 159 161 163 158 162 143 95 13 342 334 330 322 318
138 113 125 151 129 222 250 124 124 212 257 207 286 229 190 193 212 231 228 205 208 196 182 192 201 217 228 205 186 145 149 148 141 141 117 64 44 15 346 343 333 323 319 316
63 131 139 200 208 322 273 191 168 169 258 201 209 206 201 148 40 277 207 198 194 196 197 197 209 219 204 191 168 149 151 140 127 109 94 65 45 351 340 324 316 314 311 309
95 24 208 132 186 226 277 7 76 96 278 218 156 173 160 123 109 258 211 203 206 200 205 220 227 194 186 183 155 152 158 142 141 136 96 62 21 346 308 300 302 298 294 297
95 8 215 205 231 283 205 173 155 109 243 158 180 172 151 180 206 210 202 203 201 212 226 230 194 203 186 144 145 159 151 171 126 101 47 31 19 305 273 277 283 288 289 291
153 168 205 78 214 268 159 69 161 203 187 173 191 195 187 218 238 223 219 217 212 228 231 216 187 186 159 150 149 160 174 137 108 52 343 327 311 299 289 272 283 278 282 284
234 198 182 178 204 238 211 182 215 175 173 204 188 210 207 216 224 227 228 223 231 229 224 181 183 159 151 149 147 159 159 134 137 332 302 285 296 286 279 281 286 291 280 276
244 148 147 101 208 215 208 234 247 202 226 201 204 209 186 213 228 237 241 243 234 221 205 171 159 177 174 164 149 144 153 138 158 247 261 275 266 275 261 265 272 277 275 280
193 124 148 266 270 150 241 226 230 225 228 252 239 218 218 203 240 227 244 239 238 208 171 172 182 184 176 162 161 153 157 163 204 230 255 252 252 258 274 262 265 268 267 275
158 157 165 213 222 180 232 210 217 224 233 227 228 250 237 202 231 221 238 234 202 190 148 162 155 145 153 151 169 178 182 178 198 247 257 243 266 266 274 282 289 288 298 305